C/2003 U1 ( LINEAR )

Japanese version
Home page
Total 6,336 html files since Dec. 4, 1995
Updated on February 11, 2004

---------------------------------------------------------------------

* Profile

Discovery Date October 19, 2003
Magnitude 18.2 mag
Discoverer Lincoln Laboratory Near-Earth Asteroid Research project

* Orbital Elements

Epoch 2003 Nov. 17.0 TT = JDT 2452960.5
T 2003 Nov. 3.39812 TT                                  MPC
q   1.7957083            (2000.0)            P               Q
n   0.00900613     Peri.  278.38389     +0.69288375     +0.70262268
a  22.8793614      Node   322.76305     +0.72065570     -0.66738728
e   0.9215141      Incl.  164.47463     +0.02382144     -0.24681086
P 109.44

* Finding Charts

* Magnitudes Graph

        m1 = 14.1 + 5 log d + 10.0 log r

---------------------------------------------------------------------

The orbital elements are published on M.P.E.C. 2004-A10.
The charts are made with StellaNavigator Ver.2.0 for Windows (AstroArts / ASCII).
The magnitudes graphs are made with Comet for Windows.

---------------------------------------------------------------------

Copyright(C) 1995-2008 Seiichi Yoshida (comet@aerith.net). All rights reserved.